Regional Weather Roundup
Issued by NWS

Home | Current Version | Previous Version | Graphics & Text | Print | Product List | Glossary On
Versions: 1 2 3 4 5 6 7 8 9 10 11 12 13 14 15 16 17 18 19 20 21 22 23 24 25 26 27 28 29 30 31 32 33 34 35 36 37 38 39 40 41 42 43 44 45 46 47 48 49 50
000
ASUS43 KLSX 272307
RWRMO

WEATHER SUMMARY FOR MISSOURI
NATIONAL WEATHER SERVICE SPRINGFIELD MO
500 PM CST THU NOV 27 2014

NOTE: "FAIR" INDICATES FEW OR NO CLOUDS BELOW 12,000 FEET WITH NO
       SIGNIFICANT WEATHER AND/OR OBSTRUCTIONS TO VISIBILITY.
       CURRENT SKY AND/OR WEATHER CONDITIONS ARE NOT AVAILABLE FOR
       CHILLICOTHE AND FARMINGTON.

MOZ001>031-035>038-043-044-053-054-280000-
...NORTHERN AND WESTERN MISSOURI...

CITY           SKY/WX    TMP DP  RH WIND       PRES   REMARKS
KANSAS CTY INT MOCLDY    32  21  64 E10       30.37F WCI  24
KANSAS C DTWN  CLEAR     33  22  63 E13       30.38F WCI  24
LEE`S SUMMIT   CLEAR     35  20  54 SE6       30.38F
ST JOSEPH      PTCLDY    30  19  63 E8        30.38F WCI  22
CHILLICOTHE      N/A     28  17  63 SE3       30.44F
KIRKSVILLE     CLOUDY    22  14  71 NE6       30.44F WCI  14

$$
MOZ066>068-077>081-088>096-101>105-280000-
...SOUTHWEST MISSOURI...

CITY           SKY/WX    TMP DP  RH WIND       PRES   REMARKS
SPRINGFIELD    CLEAR     39  20  46 CALM      30.40F
JOPLIN         CLEAR     40  20  44 SE5       30.40F

$$
MOZ032>034-039>042-045>050-055>058-069>072-280000-
...CENTRAL MISSOURI...

CITY           SKY/WX    TMP DP  RH WIND       PRES   REMARKS
COLUMBIA       CLOUDY    33  23  66 W3        30.44S
JEFFERSON CITY PTCLDY    34  23  64 NW5       30.46S WCI  30
ROLLA          CLOUDY    32  22  66 CALM      30.42S
SEDALIA        CLEAR     34  23  64 CALM      30.44F
WHITEMAN AFB   CLEAR     31  22  68 E6        30.41F WCI  26
WARRENSBURG    CLEAR     32  23  69 E7        30.42S WCI  26
OSAGE BEACH    CLEAR     36  21  55 CALM      30.44F

$$
MOZ051-052-059>065-280000-
...EAST CENTRAL MISSOURI...

CITY           SKY/WX    TMP DP  RH WIND       PRES   REMARKS
ST LOUIS INTL  PTCLDY    30  18  60 N9        30.46S WCI  22
SPIRIT OF STL  CLEAR     32  20  61 N5        30.45S WCI  27
ST CHARLES     CLEAR     29  16  58 NW10      30.46S WCI  20

$$
MOZ072>076-082>087-097>100-106>115-280000-
...SOUTH CENTRAL AND SOUTHEAST MISSOURI...

CITY           SKY/WX    TMP DP  RH WIND       PRES   REMARKS
CAPE GIRARDEAU CLEAR     36  26  67 N3        30.46S
FARMINGTON     CLEAR     34  21  60 W3        30.45R
POPLAR BLUFF   CLEAR     37  25  61 CALM      30.45S
WEST PLAINS    CLEAR     38  18  44 W3        30.42F

$$


USA.gov is the U.S. government's official web portal to all federal, state and local government web resources and services.